| time (UTC) | temp C | wind direction | speed KPH | gust KPH | rain 1hr cm | rain 24hr cm | rain mn cm | humidity % | barometer mb |
| 20260507175505 | 19 | 225 | 0.0 | 6.4 | 0.00 | 0.00 | 0.00 | 25 | 1010.7 |
| 20260507174956 | 19 | 248 | 0.0 | 6.4 | 0.00 | 0.00 | 0.00 | 26 | 1010.7 |
| 20260507174446 | 19 | 248 | 0.0 | 3.2 | 0.00 | 0.00 | 0.00 | 26 | 1010.5 |
| 20260507173936 | 19 | 248 | 0.0 | 3.2 | 0.00 | 0.00 | 0.00 | 27 | 1010.5 |
| 20260507173426 | 18 | 203 | 0.0 | 3.2 | 0.00 | 0.00 | 0.00 | 26 | 1010.9 |
| 20260507172405 | 18 | 203 | 0.0 | 3.2 | 0.00 | 0.00 | 0.00 | 26 | 1011.2 |
| 20260507171856 | 18 | 248 | 0.0 | 3.2 | 0.00 | 0.00 | 0.00 | 27 | 1011.3 |
| 20260507171345 | 19 | 225 | 0.0 | 3.2 | 0.00 | 0.00 | 0.00 | 27 | 1011.2 |
| 20260507170834 | 18 | 225 | 0.0 | 3.2 | 0.00 | 0.00 | 0.00 | 26 | 1011.4 |
| 20260507165815 | 18 | 225 | 0.0 | 3.2 | 0.00 | 0.00 | 0.00 | 27 | 1011.3 |
| 20260507165306 | 18 | 180 | 0.0 | 3.2 | 0.00 | 0.00 | 0.00 | 27 | 1011.5 |
| 20260507164754 | 18 | 225 | 0.0 | 6.4 | 0.00 | 0.00 | 0.00 | 27 | 1011.6 |
| 20260507164245 | 18 | 180 | 0.0 | 6.4 | 0.00 | 0.00 | 0.00 | 27 | 1011.5 |
| 20260507163735 | 18 | 180 | 0.0 | 3.2 | 0.00 | 0.00 | 0.00 | 27 | 1011.7 |
| 20260507163223 | 18 | 203 | 0.0 | 3.2 | 0.00 | 0.00 | 0.00 | 28 | 1011.8 |
| 20260507162713 | 18 | 225 | 0.0 | 3.2 | 0.00 | 0.00 | 0.00 | 29 | 1011.6 |
| 20260507162204 | 18 | 203 | 0.0 | 3.2 | 0.00 | 0.00 | 0.00 | 28 | 1011.6 |
| 20260507161653 | 18 | 225 | 0.0 | 3.2 | 0.00 | 0.00 | 0.00 | 28 | 1012.0 |
| 20260507161144 | 18 | 203 | 0.0 | 3.2 | 0.00 | 0.00 | 0.00 | 28 | 1012.1 |
| 20260507160633 | 18 | 248 | 0.0 | 3.2 | 0.00 | 0.00 | 0.00 | 27 | 1012.1 |
| 20260507160124 | 17 | 68 | 0.0 | 3.2 | 0.00 | 0.00 | 0.00 | 29 | 1012.3 |
| 20260507155613 | 18 | 203 | 0.0 | 3.2 | 0.00 | 0.00 | 0.00 | 29 | 1012.4 |
| 20260507155103 | 18 | 225 | 0.0 | 3.2 | 0.00 | 0.00 | 0.00 | 29 | 1012.3 |
| 20260507154553 | 17 | 248 | 0.0 | 3.2 | 0.00 | 0.00 | 0.00 | 29 | 1012.4 |
| 20260507154045 | 17 | 180 | 0.0 | 3.2 | 0.00 | 0.00 | 0.00 | 30 | 1012.6 |
| 20260507153533 | 17 | 180 | 0.0 | 3.2 | 0.00 | 0.00 | 0.00 | 30 | 1012.8 |
| 20260507153023 | 17 | 225 | 0.0 | 3.2 | 0.00 | 0.00 | 0.00 | 30 | 1012.8 |
| 20260507152512 | 17 | 203 | 0.0 | 3.2 | 0.00 | 0.00 | 0.00 | 31 | 1012.7 |
| 20260507151452 | 17 | 248 | 0.0 | 3.2 | 0.00 | 0.00 | 0.00 | 34 | 1012.7 |
| 20260507150943 | 16 | 203 | 0.0 | 3.2 | 0.00 | 0.00 | 0.00 | 34 | 1012.6 |
| 20260507150432 | 16 | 203 | 0.0 | 3.2 | 0.00 | 0.00 | 0.00 | 35 | 1012.6 |
| 20260507145412 | 15 | 180 | 0.0 | 3.2 | 0.00 | 0.00 | 0.00 | 36 | 1012.3 |
| 20260507144902 | 15 | 180 | 0.0 | 3.2 | 0.00 | 0.00 | 0.00 | 37 | 1012.5 |
| 20260507144352 | 15 | 203 | 0.0 | 3.2 | 0.00 | 0.00 | 0.00 | 37 | 1012.6 |
| 20260507143842 | 15 | 225 | 0.0 | 3.2 | 0.00 | 0.00 | 0.00 | 37 | 1012.7 |
| 20260507143331 | 15 | 203 | 0.0 | 3.2 | 0.00 | 0.00 | 0.00 | 37 | 1012.5 |
| 20260507142821 | 15 | 203 | 0.0 | 3.2 | 0.00 | 0.00 | 0.00 | 38 | 1012.5 |
| 20260507142315 | 15 | 225 | 0.0 | 3.2 | 0.00 | 0.00 | 0.00 | 38 | 1012.5 |
| 20260507141251 | 15 | 225 | 0.0 | 3.2 | 0.00 | 0.00 | 0.00 | 38 | 1012.3 |
| 20260507140741 | 15 | 180 | 0.0 | 3.2 | 0.00 | 0.00 | 0.00 | 38 | 1012.5 |
| 20260507140231 | 14 | 225 | 0.0 | 0.0 | 0.00 | 0.00 | 0.00 | 39 | 1012.5 |
| 20260507135720 | 14 | 225 | 0.0 | 3.2 | 0.00 | 0.00 | 0.00 | 38 | 1012.2 |
| 20260507135210 | 14 | 225 | 0.0 | 3.2 | 0.00 | 0.00 | 0.00 | 38 | 1012.1 |
| 20260507134700 | 14 | 203 | 0.0 | 3.2 | 0.00 | 0.00 | 0.00 | 39 | 1012.2 |
| 20260507134150 | 14 | 225 | 0.0 | 3.2 | 0.00 | 0.00 | 0.00 | 40 | 1012.1 |
| 20260507133640 | 14 | 203 | 0.0 | 3.2 | 0.00 | 0.00 | 0.00 | 40 | 1012.2 |
| 20260507133130 | 14 | 203 | 0.0 | 3.2 | 0.00 | 0.00 | 0.00 | 39 | 1011.8 |
| 20260507132620 | 14 | 225 | 0.0 | 3.2 | 0.00 | 0.00 | 0.00 | 40 | 1011.8 |
| 20260507131049 | 14 | 203 | 0.0 | 3.2 | 0.00 | 0.00 | 0.00 | 41 | 1011.6 |
| 20260507130542 | 14 | 203 | 0.0 | 0.0 | 0.00 | 0.00 | 0.00 | 41 | 1011.7 |
| 20260507125520 | 14 | 248 | 0.0 | 3.2 | 0.00 | 0.00 | 0.00 | 41 | 1011.6 |
| 20260507125011 | 14 | 158 | 0.0 | 3.2 | 0.00 | 0.00 | 0.00 | 42 | 1011.4 |
| 20260507123949 | 14 | 225 | 0.0 | 6.4 | 0.00 | 0.00 | 0.00 | 43 | 1011.7 |
| 20260507123439 | 14 | 180 | 0.0 | 3.2 | 0.00 | 0.00 | 0.00 | 43 | 1011.4 |
| 20260507122929 | 14 | 180 | 0.0 | 3.2 | 0.00 | 0.00 | 0.00 | 43 | 1011.2 |
| 20260507122419 | 14 | 203 | 0.0 | 3.2 | 0.00 | 0.00 | 0.00 | 46 | 1011.5 |
| 20260507121908 | 14 | 203 | 0.0 | 3.2 | 0.00 | 0.00 | 0.00 | 47 | 1011.6 |
| 20260507121359 | 14 | 158 | 0.0 | 3.2 | 0.00 | 0.00 | 0.00 | 47 | 1011.7 |
| 20260507120848 | 14 | 135 | 0.0 | 3.2 | 0.00 | 0.00 | 0.00 | 46 | 1011.6 |
| 20260507115829 | 14 | 203 | 0.0 | 0.0 | 0.00 | 0.00 | 0.00 | 46 | 1012.3 |
| 20260507115319 | 15 | 203 | 0.0 | 0.0 | 0.00 | 0.00 | 0.00 | 46 | 1012.0 |
| 20260507114811 | 15 | 203 | 0.0 | 0.0 | 0.00 | 0.00 | 0.00 | 46 | 1011.5 |
| 20260507114258 | 15 | 203 | 0.0 | 0.0 | 0.00 | 0.00 | 0.00 | 45 | 1011.4 |
| 20260507113237 | 15 | 203 | 0.0 | 0.0 | 0.00 | 0.00 | 0.00 | 46 | 1011.2 |
| 20260507112727 | 15 | 203 | 0.0 | 6.4 | 0.00 | 0.00 | 0.00 | 46 | 1010.7 |
| 20260507112218 | 15 | 135 | 0.0 | 6.4 | 0.00 | 0.00 | 0.00 | 46 | 1010.4 |
| 20260507111706 | 15 | 225 | 0.0 | 3.2 | 0.00 | 0.00 | 0.00 | 45 | 1010.3 |
| 20260507110647 | 15 | 203 | 0.0 | 3.2 | 0.00 | 0.00 | 0.00 | 44 | 1009.9 |
| 20260507110137 | 15 | 225 | 0.0 | 3.2 | 0.00 | 0.00 | 0.00 | 45 | 1009.6 |
| 20260507105627 | 15 | 158 | 0.0 | 3.2 | 0.00 | 0.00 | 0.00 | 45 | 1009.6 |
| 20260507105117 | 15 | 180 | 0.0 | 6.4 | 0.00 | 0.00 | 0.00 | 45 | 1009.1 |
| 20260507104606 | 15 | 203 | 0.0 | 6.4 | 0.00 | 0.00 | 0.00 | 45 | 1009.1 |
| 20260507103547 | 16 | 203 | 0.0 | 3.2 | 0.00 | 0.00 | 0.00 | 44 | 1009.2 |
| 20260507103035 | 16 | 225 | 0.0 | 3.2 | 0.00 | 0.00 | 0.00 | 46 | 1009.3 |
| 20260507102525 | 16 | 135 | 0.0 | 3.2 | 0.00 | 0.00 | 0.00 | 46 | 1009.5 |
| 20260507102015 | 15 | 158 | 0.0 | 3.2 | 0.00 | 0.00 | 0.00 | 50 | 1008.8 |
| 20260507101507 | 15 | 203 | 0.0 | 3.2 | 0.00 | 0.00 | 0.00 | 54 | 1008.8 |
| 20260507100956 | 15 | 203 | 0.0 | 3.2 | 0.00 | 0.00 | 0.00 | 50 | 1008.7 |
| 20260507100445 | 15 | 203 | 0.0 | 3.2 | 0.00 | 0.00 | 0.00 | 50 | 1008.7 |
| 20260507095935 | 16 | 203 | 0.0 | 0.0 | 0.00 | 0.00 | 0.00 | 42 | 1009.1 |
| 20260507094915 | 16 | 158 | 0.0 | 3.2 | 0.00 | 0.00 | 0.00 | 44 | 1009.0 |
| 20260507094402 | 16 | 180 | 0.0 | 3.2 | 0.00 | 0.00 | 0.00 | 46 | 1008.9 |
| 20260507093344 | 16 | 203 | 0.0 | 0.0 | 0.00 | 0.00 | 0.00 | 48 | 1008.2 |
| 20260507092834 | 16 | 203 | 0.0 | 0.0 | 0.00 | 0.00 | 0.00 | 50 | 1008.1 |
| 20260507092324 | 16 | 203 | 0.0 | 3.2 | 0.00 | 0.00 | 0.00 | 50 | 1008.1 |
| 20260507091813 | 16 | 225 | 0.0 | 3.2 | 0.00 | 0.00 | 0.00 | 51 | 1007.9 |
| 20260507091304 | 15 | 135 | 0.0 | 3.2 | 0.00 | 0.00 | 0.00 | 53 | 1008.4 |
| 20260507090753 | 16 | 180 | 0.0 | 3.2 | 0.00 | 0.00 | 0.00 | 53 | 1008.2 |
| 20260507090244 | 16 | 158 | 0.0 | 0.0 | 0.00 | 0.00 | 0.00 | 53 | 1008.5 |
| 20260507085733 | 16 | 203 | 0.0 | 0.0 | 0.00 | 0.00 | 0.00 | 53 | 1008.5 |
| 20260507085224 | 16 | 158 | 0.0 | 0.0 | 0.00 | 0.00 | 0.00 | 53 | 1008.7 |
| 20260507084714 | 16 | 225 | 0.0 | 3.2 | 0.00 | 0.00 | 0.00 | 53 | 1008.7 |
| 20260507084203 | 16 | 225 | 0.0 | 3.2 | 0.00 | 0.00 | 0.00 | 53 | 1008.7 |
| 20260507082633 | 16 | 180 | 0.0 | 3.2 | 0.00 | 0.00 | 0.00 | 57 | 1008.4 |
| 20260507082123 | 16 | 180 | 0.0 | 3.2 | 0.00 | 0.00 | 0.00 | 57 | 1008.6 |
| 20260507081613 | 16 | 180 | 0.0 | 3.2 | 0.00 | 0.00 | 0.00 | 57 | 1008.4 |
| 20260507081103 | 16 | 135 | 0.0 | 0.0 | 0.00 | 0.00 | 0.00 | 57 | 1008.5 |
| 20260507080552 | 16 | 180 | 0.0 | 0.0 | 0.00 | 0.00 | 0.00 | 57 | 1008.4 |
| 20260507075533 | 16 | 203 | 0.0 | 0.0 | 0.00 | 0.00 | 0.00 | 57 | 1008.4 |
| 20260507075023 | 16 | 158 | 0.0 | 3.2 | 0.00 | 0.00 | 0.00 | 56 | 1008.5 |
| 20260507074514 | 17 | 158 | 0.0 | 3.2 | 0.00 | 0.00 | 0.00 | 56 | 1008.8 |
| 20260507074002 | 17 | 180 | 0.0 | 3.2 | 0.00 | 0.00 | 0.00 | 56 | 1008.5 |
| 20260507073454 | 17 | 225 | 0.0 | 3.2 | 0.00 | 0.00 | 0.00 | 57 | 1008.5 |
| 20260507072942 | 17 | 203 | 0.0 | 3.2 | 0.00 | 0.00 | 0.00 | 57 | 1008.7 |
| 20260507072434 | 17 | 113 | 0.0 | 3.2 | 0.00 | 0.00 | 0.00 | 59 | 1008.9 |
| 20260507071922 | 17 | 203 | 0.0 | 3.2 | 0.00 | 0.00 | 0.00 | 59 | 1008.5 |
| 20260507071412 | 17 | 180 | 0.0 | 0.0 | 0.00 | 0.00 | 0.00 | 59 | 1008.4 |
| 20260507070903 | 17 | 180 | 0.0 | 3.2 | 0.00 | 0.00 | 0.00 | 59 | 1008.4 |
| 20260507065841 | 17 | 203 | 0.0 | 3.2 | 0.00 | 0.00 | 0.00 | 59 | 1008.4 |
| 20260507065331 | 17 | 203 | 0.0 | 0.0 | 0.00 | 0.00 | 0.00 | 59 | 1008.2 |
| 20260507064820 | 17 | 203 | 0.0 | 3.2 | 0.00 | 0.00 | 0.00 | 61 | 1007.9 |
| 20260507063801 | 17 | 225 | 0.0 | 0.0 | 0.00 | 0.00 | 0.00 | 61 | 1008.1 |
| 20260507063251 | 18 | 225 | 0.0 | 3.2 | 0.00 | 0.00 | 0.00 | 60 | 1008.0 |
| 20260507062740 | 18 | 180 | 0.0 | 3.2 | 0.00 | 0.00 | 0.00 | 59 | 1008.0 |
| 20260507062230 | 18 | 203 | 0.0 | 3.2 | 0.00 | 0.00 | 0.00 | 60 | 1008.0 |
| 20260507061209 | 18 | 248 | 0.0 | 3.2 | 0.00 | 0.00 | 0.00 | 61 | 1007.7 |
| 20260507060149 | 18 | 203 | 0.0 | 3.2 | 0.00 | 0.00 | 0.00 | 61 | 1007.9 |
| 20260507055640 | 18 | 113 | 0.0 | 3.2 | 0.00 | 0.00 | 0.00 | 62 | 1007.8 |
| 20260507055129 | 18 | 203 | 0.0 | 3.2 | 0.00 | 0.00 | 0.00 | 64 | 1007.9 |
| 20260507054109 | 18 | 180 | 0.0 | 3.2 | 0.00 | 0.00 | 0.00 | 67 | 1007.6 |
| 20260507053559 | 18 | 180 | 0.0 | 0.0 | 0.00 | 0.00 | 0.00 | 68 | 1007.9 |
| 20260507053052 | 18 | 203 | 0.0 | 0.0 | 0.00 | 0.00 | 0.00 | 67 | 1007.6 |
| 20260507052539 | 18 | 270 | 0.0 | 3.2 | 0.00 | 0.00 | 0.00 | 66 | 1007.7 |
| 20260507052029 | 18 | 225 | 0.0 | 3.2 | 0.00 | 0.00 | 0.00 | 67 | 1007.7 |
| 20260507051529 | 19 | 225 | 0.0 | 3.2 | 0.00 | 0.00 | 0.00 | 66 | 1007.7 |
| 20260507051009 | 19 | 248 | 0.0 | 3.2 | 0.00 | 0.00 | 0.00 | 66 | 1007.4 |
| 20260507050459 | 19 | 180 | 0.0 | 3.2 | 0.00 | 0.00 | 0.00 | 67 | 1007.5 |
| 20260507045438 | 19 | 203 | 0.0 | 6.4 | 0.00 | 0.00 | 0.00 | 68 | 1007.3 |
| 20260507044928 | 19 | 203 | 0.0 | 3.2 | 0.00 | 0.00 | 0.00 | 69 | 1007.3 |
| 20260507044419 | 19 | 158 | 0.0 | 3.2 | 0.00 | 0.00 | 0.00 | 69 | 1007.0 |
| 20260507043358 | 19 | 270 | 0.0 | 6.4 | 0.00 | 0.00 | 0.00 | 71 | 1007.0 |
| 20260507042849 | 19 | 180 | 1.6 | 6.4 | 0.00 | 0.00 | 0.00 | 71 | 1007.1 |
| 20260507042338 | 19 | 180 | 0.0 | 3.2 | 0.00 | 0.00 | 0.00 | 72 | 1007.0 |
| 20260507041828 | 19 | 225 | 0.0 | 3.2 | 0.00 | 0.00 | 0.00 | 72 | 1007.0 |
| 20260507041318 | 20 | 180 | 0.0 | 3.2 | 0.00 | 0.00 | 0.00 | 72 | 1007.1 |
| 20260507040807 | 20 | 203 | 0.0 | 3.2 | 0.00 | 0.00 | 0.00 | 71 | 1007.0 |
| 20260507040257 | 20 | 203 | 0.0 | 3.2 | 0.00 | 0.00 | 0.00 | 71 | 1006.7 |
| 20260507035748 | 20 | 203 | 0.0 | 3.2 | 0.00 | 0.00 | 0.00 | 71 | 1006.6 |
| 20260507035236 | 20 | 203 | 0.0 | 3.2 | 0.00 | 0.00 | 0.00 | 70 | 1006.8 |
| 20260507034726 | 20 | 180 | 0.0 | 3.2 | 0.00 | 0.00 | 0.00 | 71 | 1007.0 |
| 20260507034218 | 20 | 203 | 0.0 | 3.2 | 0.00 | 0.00 | 0.00 | 71 | 1006.5 |
| 20260507033157 | 20 | 225 | 0.0 | 6.4 | 0.00 | 0.00 | 0.00 | 73 | 1006.7 |
| 20260507032647 | 20 | 293 | 0.0 | 6.4 | 0.00 | 0.00 | 0.00 | 73 | 1007.0 |
| 20260507031116 | 21 | 225 | 0.0 | 11.3 | 0.00 | 0.00 | 0.00 | 75 | 1006.1 |
| 20260507030606 | 21 | 203 | 0.0 | 11.3 | 0.00 | 0.00 | 0.00 | 79 | 1006.2 |
| 20260507030056 | 21 | 180 | 0.0 | 6.4 | 0.00 | 0.00 | 0.00 | 81 | 1005.9 |
| 20260507025547 | 21 | 203 | 0.0 | 3.2 | 0.00 | 0.00 | 0.00 | 84 | 1005.7 |
| 20260507025036 | 21 | 158 | 0.0 | 3.2 | 0.00 | 0.00 | 0.00 | 85 | 1005.5 |
| 20260507024526 | 21 | 135 | 0.0 | 0.0 | 0.00 | 0.00 | 0.00 | 86 | 1005.6 |
| 20260507024015 | 21 | 180 | 0.0 | 3.2 | 0.00 | 0.00 | 0.00 | 85 | 1005.7 |
| 20260507023505 | 21 | 203 | 0.0 | 3.2 | 0.00 | 0.00 | 0.00 | 86 | 1005.9 |
| 20260507022955 | 21 | 225 | 0.0 | 0.0 | 0.00 | 0.00 | 0.00 | 88 | 1005.8 |
| 20260507022445 | 20 | 158 | 0.0 | 3.2 | 0.00 | 0.00 | 0.00 | 91 | 1006.1 |
| 20260507021936 | 21 | 158 | 0.0 | 3.2 | 0.00 | 0.00 | 0.00 | 89 | 1005.8 |
| 20260507021425 | 21 | 180 | 0.0 | 3.2 | 0.00 | 0.00 | 0.00 | 91 | 1005.7 |
| 20260507020914 | 20 | 113 | 0.0 | 3.2 | 0.00 | 0.00 | 0.00 | 93 | 1005.9 |
| 20260507020438 | 20 | 135 | 0.0 | 0.0 | 0.00 | 0.00 | 0.00 | 94 | 1006.0 |
| 20260507015854 | 20 | 135 | 0.0 | 3.2 | 0.00 | 0.00 | 0.00 | 95 | 1005.7 |
| 20260507015344 | 20 | 180 | 0.0 | 3.2 | 0.00 | 0.00 | 0.00 | 96 | 1005.5 |
| 20260507014835 | 19 | 180 | 0.0 | 0.0 | 0.00 | 0.00 | 0.00 | 96 | 1005.5 |
| 20260507014324 | 19 | 180 | 0.0 | 0.0 | 0.00 | 0.00 | 0.00 | 96 | 1005.4 |
| 20260507013815 | 20 | 158 | 0.0 | 0.0 | 0.00 | 0.00 | 0.00 | 95 | 1005.3 |
| 20260507012753 | 20 | 158 | 0.0 | 0.0 | 0.00 | 0.00 | 0.00 | 94 | 1005.4 |
| 20260507012244 | 20 | 180 | 0.0 | 3.2 | 0.00 | 0.00 | 0.00 | 94 | 1005.7 |
| 20260507011735 | 20 | 203 | 0.0 | 3.2 | 0.00 | 0.00 | 0.00 | 94 | 1005.4 |
| 20260507011224 | 20 | 203 | 0.0 | 0.0 | 0.00 | 0.00 | 0.00 | 94 | 1005.6 |
| 20260507010714 | 19 | 225 | 0.0 | 3.2 | 0.00 | 0.00 | 0.00 | 94 | 1005.6 |
| 20260507010204 | 19 | 225 | 0.0 | 3.2 | 0.00 | 0.00 | 0.00 | 94 | 1005.3 |
| 20260507005144 | 19 | 135 | 0.0 | 0.0 | 0.00 | 0.00 | 0.00 | 93 | 1004.9 |
| 20260507004633 | 20 | 135 | 0.0 | 0.0 | 0.00 | 0.00 | 0.00 | 92 | 1005.1 |
| 20260507004122 | 20 | 180 | 0.0 | 0.0 | 0.00 | 0.00 | 0.00 | 91 | 1005.3 |
| 20260507003615 | 20 | 180 | 0.0 | 0.0 | 0.00 | 0.00 | 0.00 | 91 | 1005.0 |
| 20260507003104 | 20 | 180 | 0.0 | 0.0 | 0.00 | 0.00 | 0.00 | 91 | 1005.0 |
| 20260507002553 | 20 | 203 | 0.0 | 3.2 | 0.00 | 0.00 | 0.00 | 91 | 1004.9 |
| 20260507002044 | 20 | 203 | 0.0 | 3.2 | 0.00 | 0.00 | 0.00 | 91 | 1005.0 |
| 20260507001022 | 19 | 135 | 0.0 | 3.2 | 0.00 | 0.00 | 0.00 | 91 | 1004.6 |
| 20260507000512 | 18 | 68 | 0.0 | 0.0 | 0.00 | 0.00 | 0.00 | 91 | 1004.4 |
| 20260507000004 | 18 | 68 | 0.0 | 0.0 | 0.00 | 0.00 | 0.00 | 91 | 1004.2 |
| 20260506234943 | 19 | 68 | 0.0 | 0.0 | 0.00 | 0.00 | 0.00 | 89 | 1004.2 |
| 20260506234432 | 19 | 68 | 0.0 | 0.0 | 0.00 | 0.00 | 0.00 | 89 | 1004.0 |
| 20260506233923 | 20 | 68 | 0.0 | 0.0 | 0.00 | 0.00 | 0.00 | 88 | 1004.1 |
| 20260506233412 | 20 | 68 | 0.0 | 0.0 | 0.00 | 0.00 | 0.00 | 89 | 1004.0 |
| 20260506232901 | 20 | 68 | 0.0 | 0.0 | 0.00 | 0.00 | 0.00 | 89 | 1004.1 |
| 20260506231842 | 20 | 68 | 0.0 | 0.0 | 0.00 | 0.00 | 0.00 | 87 | 1004.0 |
| 20260506231331 | 20 | 45 | 0.0 | 0.0 | 0.00 | 0.00 | 0.00 | 86 | 1004.1 |
| 20260506230311 | 21 | 45 | 0.0 | 0.0 | 0.00 | 0.00 | 0.00 | 85 | 1003.6 |
| 20260506225801 | 21 | 45 | 0.0 | 0.0 | 0.00 | 0.00 | 0.00 | 85 | 1003.7 |
| 20260506225251 | 21 | 45 | 0.0 | 0.0 | 0.00 | 0.00 | 0.00 | 84 | 1003.7 |
| 20260506224740 | 21 | 45 | 0.0 | 0.0 | 0.00 | 0.00 | 0.00 | 83 | 1003.3 |
| 20260506224231 | 21 | 45 | 0.0 | 0.0 | 0.00 | 0.00 | 0.00 | 82 | 1002.9 |
| 20260506223211 | 22 | 45 | 0.0 | 0.0 | 0.00 | 0.00 | 0.00 | 80 | 1002.4 |
| 20260506222700 | 22 | 45 | 0.0 | 0.0 | 0.00 | 0.00 | 0.00 | 80 | 1002.4 |
| 20260506222150 | 23 | 45 | 0.0 | 0.0 | 0.00 | 0.00 | 0.00 | 79 | 1002.4 |
| 20260506221640 | 23 | 45 | 0.0 | 0.0 | 0.00 | 0.00 | 0.00 | 78 | 1002.1 |
| 20260506221129 | 23 | 45 | 0.0 | 0.0 | 0.00 | 0.00 | 0.00 | 77 | 1002.1 |
| 20260506220620 | 23 | 45 | 0.0 | 0.0 | 0.00 | 0.00 | 0.00 | 77 | 1001.8 |
| 20260506220109 | 23 | 45 | 0.0 | 0.0 | 0.00 | 0.00 | 0.00 | 77 | 1001.9 |
| 20260506215600 | 23 | 45 | 0.0 | 0.0 | 0.00 | 0.00 | 0.00 | 76 | 1001.9 |
| 20260506215049 | 24 | 45 | 0.0 | 0.0 | 0.00 | 0.00 | 0.00 | 76 | 1001.9 |
| 20260506214539 | 24 | 45 | 0.0 | 0.0 | 0.00 | 0.00 | 0.00 | 75 | 1001.9 |
| 20260506214029 | 25 | 45 | 0.0 | 0.0 | 0.00 | 0.00 | 0.00 | 74 | 1001.7 |
| 20260506213519 | 25 | 45 | 0.0 | 0.0 | 0.00 | 0.00 | 0.00 | 73 | 1002.1 |
| 20260506213009 | 25 | 45 | 0.0 | 0.0 | 0.00 | 0.00 | 0.00 | 72 | 1001.9 |
| 20260506212459 | 26 | 45 | 0.0 | 0.0 | 0.00 | 0.00 | 0.00 | 70 | 1001.8 |
| 20260506211949 | 26 | 45 | 0.0 | 0.0 | 0.00 | 0.00 | 0.00 | 69 | 1001.6 |
| 20260506210418 | 27 | 45 | 0.0 | 3.2 | 0.00 | 0.00 | 0.00 | 68 | 1001.4 |
| 20260506205908 | 27 | 45 | 0.0 | 3.2 | 0.00 | 0.00 | 0.00 | 68 | 1001.7 |
| 20260506205358 | 27 | 23 | 0.0 | 0.0 | 0.00 | 0.00 | 0.00 | 66 | 1001.8 |
| 20260506204337 | 28 | 45 | 0.0 | 0.0 | 0.00 | 0.00 | 0.00 | 65 | 1001.6 |
| 20260506203827 | 28 | 45 | 0.0 | 0.0 | 0.00 | 0.00 | 0.00 | 65 | 1001.6 |
| 20260506203317 | 28 | 45 | 0.0 | 0.0 | 0.00 | 0.00 | 0.00 | 63 | 1001.5 |
| 20260506202808 | 28 | 23 | 0.0 | 0.0 | 0.00 | 0.00 | 0.00 | 62 | 1001.8 |
| 20260506202257 | 28 | 23 | 0.0 | 0.0 | 0.00 | 0.00 | 0.00 | 63 | 1001.7 |
| 20260506201748 | 28 | 23 | 0.0 | 0.0 | 0.00 | 0.00 | 0.00 | 62 | 1001.7 |
| 20260506201237 | 29 | 23 | 0.0 | 0.0 | 0.00 | 0.00 | 0.00 | 61 | 1001.7 |
| 20260506200728 | 29 | 23 | 0.0 | 0.0 | 0.00 | 0.00 | 0.00 | 61 | 1001.9 |
| 20260506200217 | 29 | 23 | 0.0 | 0.0 | 0.00 | 0.00 | 0.00 | 61 | 1001.8 |
| 20260506195707 | 29 | 0 | 0.0 | 0.0 | 0.00 | 0.00 | 0.00 | 62 | 1002.1 |
| 20260506195156 | 29 | 23 | 0.0 | 0.0 | 0.00 | 0.00 | 0.00 | 61 | 1002.2 |
| 20260506194144 | 30 | 0 | 0.0 | 0.0 | 0.00 | 0.00 | 0.00 | 59 | 1002.1 |
| 20260506192607 | 30 | 23 | 0.0 | 0.0 | 0.00 | 0.00 | 0.00 | 59 | 1002.1 |
| 20260506192056 | 30 | 45 | 0.0 | 0.0 | 0.00 | 0.00 | 0.00 | 58 | 1002.3 |
| 20260506191546 | 30 | 23 | 0.0 | 0.0 | 0.00 | 0.00 | 0.00 | 59 | 1002.5 |
| 20260506191038 | 30 | 0 | 0.0 | 0.0 | 0.00 | 0.00 | 0.00 | 59 | 1002.6 |
| 20260506190017 | 30 | 0 | 0.0 | 0.0 | 0.00 | 0.00 | 0.00 | 58 | 1002.8 |
| 20260506185505 | 30 | 338 | 0.0 | 0.0 | 0.00 | 0.00 | 0.00 | 58 | 1002.7 |
| 20260506184956 | 29 | 0 | 0.0 | 0.0 | 0.00 | 0.00 | 0.00 | 59 | 1003.1 |
| 20260506184445 | 30 | 0 | 0.0 | 0.0 | 0.00 | 0.00 | 0.00 | 58 | 1003.1 |
| 20260506183935 | 30 | 0 | 0.0 | 0.0 | 0.00 | 0.00 | 0.00 | 58 | 1003.0 |
| 20260506183425 | 30 | 23 | 0.0 | 0.0 | 0.00 | 0.00 | 0.00 | 59 | 1003.1 |
| 20260506182915 | 29 | 0 | 0.0 | 0.0 | 0.00 | 0.00 | 0.00 | 60 | 1003.0 |
| 20260506182406 | 29 | 0 | 0.0 | 0.0 | 0.00 | 0.00 | 0.00 | 60 | 1003.2 |
| 20260506181855 | 29 | 0 | 0.0 | 0.0 | 0.00 | 0.00 | 0.00 | 61 | 1003.4 |
| 20260506181345 | 29 | 23 | 0.0 | 0.0 | 0.00 | 0.00 | 0.00 | 61 | 1003.6 |